Airfield :
LOGIN :

Register | Disclaimer

   EN    FR    IT 

 










Legend :    VFR   Marginal VFR   IFR   Intensive IFR   Very Intensive IFR
Visi :
Ceiling :
>= 8 km
>= 3000ft
5 to 8 km
1000 to 3000 ft
1500m to 5 km
500 to 1000 ft
800 to 1500m
200 to 500 ft
< 800m
< 200 ft
Symbols :   Thunderstorms  Fog  Heavy snow  Heavy precipitations  Wind > 20 kt
SIGMETs :     Misc.  Thunderstorms  Icing  Turbulence  Mountain Waves  Volcanic Ashes







- Airport Elevation : 9 ft
- IATA code : MIR


DTMB - Habib Bourguliba Int. Monastir

CURRENT METAR :
  • 270030Z 34006KT 8000 SCT040 14/09 Q1017

EXPIRED METARs :
  • 270000Z 36004KT 8000 FEW039 14/09 Q1017
  • 262330Z 33005KT 8000 BKN040 14/09 Q1018 RE -RA
  • 262300Z 34005KT 8000 BKN040 14/09 Q1018
  • 262230Z 34008KT 8000 BKN040 14/09 Q1017
  • 262200Z 35010KT 8000 SCT040 15/08 Q1017

TAF TAF DTMB
Valid from the 27 at 00:00 until the 28 at 00:00 UTC


262300Z 2700/2724 33005KT 8000 BKN040
TEMPO 2705/2712 4000 -SHRA FEW023TCU
No reported NOTAMs for that airfield.



MET'MAP, your aeronautical weather chart ! - Copyright ORBIFLY December 2007 - Disclaimer

ORBIFLY MET'MAP TEAM :

Programming & Development : Alexandra Zaïnal
Concept & Development : Baudouin d'Aumeries
Co-Development & Prog : Marc-Olivier Méhu
Technical & hardware support : Manuel Goepfert

Contact : metmap@orbifly.com




SOURCES & CREDITS :

   NOAA